CO-66
1 32791U 08021J 15071.89700812 .00002891 00000-0 31839-3 0 9999
2 32791 097.6637 120.6324 0014444 024.3051 335.8844 14.88231750371995
RS-30
1 32953U 08025A 15071.97457538 .00000010 00000-0 -13620-7 0 9990
2 32953 082.5032 034.0671 0017664 293.4540 066.4686 12.43057536308650
METEOR-M
1 35865U 09049A 15072.09318373 .00000128 00000-0 77224-4 0 9995
2 35865 098.5131 115.8238 0003451 047.1192 313.0278 14.21999292284557
RS-38
1 35869U 09049E 15072.14466495 .00000073 00000-0 51634-4 0 9990
2 35869 098.5047 115.5506 0005641 039.8238 320.3353 14.22277011284604
JUGNU
1 37839U 11058B 15072.21540208 .00000471 00000-0 10969-3 0 9992
2 37839 019.9617 064.3103 0019166 069.2182 029.5049 14.12433329176637
SRMSAT
1 37841U 11058D 15071.16710153 .00000443 00000-0 98902-4 0 9999
2 37841 019.9719 095.3928 0011798 347.9562 077.9158 14.10450973176239
RAX-2
1 37853U 11061D 15071.52389492 .00006172 00000-0 39097-3 0 9998
2 37853 101.7122 235.1793 0200772 357.7286 041.2139 14.94489021182663
AUBIESAT
1 37854U 11061E 15071.91809846 .00007020 00000-0 42443-3 0 9994
2 37854 101.7183 238.7495 0197295 352.1859 162.0249 14.96425574182815
HRBE
1 37855U 11061F 15072.16252295 .00005116 00000-0 31770-3 0 9998
2 37855 101.7169 237.9650 0200487 353.6308 006.2355 14.95378071182799
RS-39
1 38051U 11062C 14288.65876392 .70201582 12497-4 27925-2 0 9995
2 38051 051.5964 324.1908 0006422 269.6897 186.8903 16.43533377153081
E-STAR
1 38079U 12006C 15016.13455217 .17990388 48979-5 52837-3 0 9992
2 38079 069.3967 125.0648 0013168 047.0341 316.5109 16.44007688156194
GOLIAT
1 38085U 12006J 15047.13271005 .15174231 50628-5 38163-3 0 9993
2 38085 069.4022 049.8202 0017770 344.8867 016.3100 16.44194733160691
HORYU-2
1 38340U 12025D 15071.86536112 .00002567 00000-0 39935-3 0 9996
2 38340 098.3027 039.4007 0013204 047.6645 312.5679 14.73874932151349
RS-40
1 38735U 12041C 15072.05410232 .00000040 00000-0 21992-3 0 9996
2 38735 082.4740 119.9277 0017545 034.2007 326.0205 12.42567613118978
PROITERES
1 38756U 12047B 15072.12135481 .00001137 00000-0 17429-3 0 9991
2 38756 098.2178 169.8167 0011137 242.5067 117.5007 14.75614559134830
BEESAT-3
1 39134U 13015E 15071.94139295 .00011015 00000-0 66839-3 0 9999
2 39134 064.8751 005.0730 0034142 264.4259 095.2969 15.10416743104157
BEESAT-2
1 39136U 13015G 15071.76859927 .00008778 00000-0 55495-3 0 9990
2 39136 064.8756 007.3043 0034692 264.1962 095.5204 15.09073105104103
LO-75
1 39382U 13064C 14295.69194059 .07301741 00000-0 36367-2 0 9993
2 39382 040.4713 030.2705 0002289 341.7175 018.4586 16.19795749470823
ZACUBE-1
1 39417U 13066B 15071.89334242 .00002162 00000-0 28777-3 0 9994
2 39417 097.7408 137.9948 0062320 090.3856 270.4497 14.79335640 70390
TRITON-1
1 39427U 13066M 15071.93762326 .00001767 00000-0 29655-3 0 9994
2 39427 097.7278 128.3078 0117759 114.1834 247.1733 14.66352750 69762
DELFIN3XT
1 39428U 13066N 15071.78547266 .00002849 00000-0 48165-3 0 9991
2 39428 097.7276 126.6601 0126801 118.9465 242.4523 14.64882136 69639
GOMX-1
1 39430U 13066Q 15072.12735772 .00001717 00000-0 32697-3 0 9990
2 39430 097.7218 122.1300 0155146 131.9360 229.5183 14.57761493 69382
MO-76
1 39436U 13066W 15071.88293416 .00027111 00000-0 20776-2 0 9992
2 39436 097.7532 147.7889 0023497 070.1003 290.2750 15.01582273 71018
LO-74
1 39440U 13066AA 15071.89970714 .00001977 00000-0 29035-3 0 9991
2 39440 097.7362 134.1460 0084054 098.9303 262.1432 14.74183423 70158
PUCPSAT-1
1 39442U 13066AC 15071.94528950 .00003672 00000-0 40170-3 0 9997
2 39442 097.7480 144.1692 0034828 081.6109 278.9053 14.87982049 69557
SHINAISAT
1 39572U 14009A 14328.13084988 .28848087 76253-5 66603-3 0 9996
2 39572 064.9728 197.0096 0013534 259.7861 100.1802 16.45181032 42403
TEIKYOSAT
1 39576U 14009E 14297.85867254 .09345816 76764-5 25176-3 0 9997
2 39576 064.9818 300.5833 0008491 317.3597 044.3862 16.45008906 37698
CO-77
1 39577U 14009F 14244.78324653 .10543803 76292-5 32273-3 0 9993
2 39577 064.9920 123.7668 0014904 269.7208 091.1897 16.43552757 29380
SPROUT
1 39770U 14029E 15072.01150095 .00000965 00000-0 12365-3 0 9998
2 39770 097.8683 170.1848 0010789 149.7261 210.4554 14.83513637 43372
POPSAT-HIP1
1 40028U 14033U 15072.15073042 .00002562 00000-0 29511-3 0 9998
2 40028 097.9646 332.3145 0015347 132.1550 228.0973 14.86528415 39518
EO-80
1 40032U 14033Y 15072.12738255 .00002549 00000-0 29569-3 0 9992
2 40032 097.9618 332.0598 0013706 127.3925 232.8519 14.86253199 39513
VELOX-1
1 40057U 14034E 15072.11647112 .00002634 00000-0 39588-3 0 9997
2 40057 098.2224 148.6481 0011633 179.7111 180.4102 14.75345059 37715
DAURIA DX 1
1 40071U 14037C 15072.14277512 .00001213 00000-0 16720-3 0 9997
2 40071 098.3669 139.5759 0008669 179.4407 180.6828 14.80159693 36586
UKUBE-1
1 40074U 14037F 15072.15319976 .00002589 00000-0 33594-3 0 9997
2 40074 098.3687 140.0840 0004845 179.7264 180.3952 14.81702528 36614
CHASQUI-1
1 40117U 98067ET 15014.73322295 .07508583 12315-4 10026-2 0 9990
2 40117 051.6189 112.4445 0004239 337.2783 022.7551 16.34635278 23368
HODOYOSHI-1
1 40299U 14070B 15072.15701536 .00005107 00000-0 25093-3 0 9994
2 40299 097.4607 154.9109 0014843 106.9539 310.6276 15.18399360 19247
CHUBUSAT-1
1 40300U 14070C 15072.13361095 .00006107 00000-0 31417-3 0 9995
2 40300 097.4582 154.4641 0024358 107.9087 339.5318 15.16543870 19218
QSAT-EOS
1 40301U 14070D 15072.16689697 .00010820 00000-0 57288-3 0 9991
2 40301 097.4547 154.0441 0034638 108.1909 282.3856 15.15068002 19199
TSUBAME
1 40302U 14070E 15072.07544183 .00005587 00000-0 32260-3 0 9999
2 40302 097.4522 153.4025 0045777 109.5999 008.4529 15.11819320 19146
FIREBIRD FU3
1 40377U 15003B 15072.00314767 .00007767 00000-0 40693-3 0 9995
2 40377 099.1229 087.8082 0163815 207.5891 151.6576 15.05249760 6077
FIREBIRD FU4
1 40378U 15003C 15072.00239753 .00007683 00000-0 40211-3 0 9990
2 40378 099.1224 087.8082 0163942 207.5952 151.6524 15.05275164 6072
GRIFEX
1 40379U 15003D 15072.00739970 .00005948 00000-0 31530-3 0 9993
2 40379 099.1261 087.8080 0163818 208.6177 150.5947 15.05011857 6079
LAMBDA-SAT
1 40458U 98067GB 15071.78979742 .00139173 00000-0 18117-2 0 9992
2 40458 051.6490 205.4394 0008011 103.4108 044.8038 15.57745001 10993
